Wind_Speed
38 38 41 44 45 43 41 40 37 34 29 25 25 23 21 23 26 25 25 27 27 27 30 34 36 35 32 30 30 30 31 32 34 34 32 27 23 22 20 20 22 20 18 17 17 18 20 22 23 23 24 24 23 24 23 23 23 21 21 21 22 23 23 24 24 24 24 24 23 23 23 21 20 19 19 18 17 16 16 14 13 12 11 11 10 8
37 41 48 49 44 38 37 37 34 32 31 27 25 25 24 24 26 27 26 26 27 29 30 32 37 37 32 31 33 33 33 35 39 39 34 29 25 22 21 20 20 20 19 19 19 20 21 24 25 25 25 26 25 25 25 24 23 22 21 21 22 23 23 22 22 22 22 22 21 21 20 20 19 20 19 18 17 17 16 16 14 13 12 12 11 9
37 45 50 46 40 34 31 34 35 33 31 30 27 28 30 29 27 28 29 27 26 29 30 30 36 39 34 32 34 37 36 35 38 39 33 28 26 25 24 22 20 21 22 23 23 22 23 25 26 27 27 27 25 25 25 25 24 24 22 21 22 24 23 21 21 20 19 20 20 20 19 19 19 20 19 19 19 18 18 17 15 14 13 12 11 10
41 47 49 43 37 33 31 31 33 34 32 32 31 32 35 34 30 30 32 29 26 29 31 30 36 41 38 34 37 37 34 35 37 38 33 28 25 24 23 23 21 22 25 25 25 24 24 26 27 27 27 27 25 25 27 27 27 26 24 22 22 23 23 22 21 19 19 19 20 21 20 20 20 21 21 21 21 21 20 18 16 15 14 12 11 10
45 41 38 41 39 33 32 31 31 34 36 36 36 37 38 36 34 35 34 28 24 26 30 32 33 39 43 38 38 38 35 37 39 38 36 30 26 24 23 24 22 21 25 27 27 26 25 26 27 27 27 27 26 25 26 27 26 25 24 23 22 22 23 23 21 19 20 21 22 23 24 24 25 25 25 25 24 22 20 19 17 15 14 13 11 10
47 36 24 32 42 38 33 34 34 35 36 38 40 42 40 37 36 37 33 26 23 22 24 28 24 27 42 44 39 42 43 42 42 40 39 32 28 29 27 27 24 20 24 26 25 25 25 26 26 27 27 27 27 26 24 24 24 23 23 23 23 23 24 23 21 21 21 21 22 24 26 27 27 27 26 26 23 21 19 18 17 16 15 13 12 11
46 40 24 20 31 40 38 36 37 36 36 39 42 43 40 38 38 37 31 24 23 22 19 24 24 20 34 46 41 46 51 48 45 42 38 33 31 33 31 28 26 23 24 25 24 24 24 25 26 26 27 26 26 25 24 23 23 23 24 23 23 23 24 25 23 23 22 21 22 24 24 25 25 24 22 21 21 19 18 17 17 17 15 14 13 12
43 41 35 25 25 35 41 41 39 38 38 40 39 38 38 40 40 38 32 24 25 27 21 25 36 28 28 43 44 47 54 51 50 46 38 36 35 34 32 28 27 26 25 25 24 23 22 22 24 25 26 25 24 24 25 25 24 23 23 23 23 23 23 25 25 24 23 22 22 23 23 24 24 22 19 19 20 20 19 19 19 18 16 15 14 13
39 40 40 35 30 34 41 43 40 38 40 40 33 30 34 38 40 38 34 31 31 27 23 25 32 24 22 43 47 45 56 56 52 48 41 39 38 35 32 28 27 27 26 26 25 23 20 19 19 21 24 24 23 25 26 26 25 23 22 22 23 23 23 25 26 25 24 23 22 22 22 23 22 22 21 21 21 21 20 20 20 19 18 16 15 14
31 35 37 38 39 37 37 37 38 38 38 38 30 25 28 30 34 33 29 34 32 21 22 27 25 16 14 40 50 44 53 56 50 47 43 41 39 36 34 31 28 28 27 28 27 23 19 15 14 16 21 24 24 25 25 26 26 25 24 23 23 24 24 25 26 26 25 24 24 24 23 22 22 23 23 23 23 22 22 21 21 21 19 17 16 15
30 26 29 36 41 39 34 31 35 38 35 34 30 27 27 26 29 30 28 33 25 13 24 34 28 20 10 30 54 50 48 49 46 46 45 42 40 38 36 34 32 31 30 29 28 25 21 15 13 15 20 24 25 25 26 27 28 28 27 25 24 24 24 24 26 26 26 25 25 24 23 23 23 23 24 25 24 23 22 21 20 20 19 18 17 16
35 27 27 32 34 36 36 31 32 34 34 33 30 30 29 26 27 27 28 30 15 6 26 34 28 24 14 21 46 51 46 44 41 44 46 45 43 41 40 38 36 34 32 31 29 26 23 20 18 18 20 24 26 27 28 28 30 30 29 27 25 25 26 25 26 26 27 27 26 24 24 23 24 24 25 25 24 23 21 19 18 18 19 19 18 17
38 40 33 27 27 32 37 34 31 32 36 35 33 33 24 14 15 14 13 14 7 9 28 30 21 20 19 23 35 44 47 44 38 38 41 44 46 45 43 41 39 37 35 33 30 26 26 25 22 20 22 26 29 30 29 29 31 31 30 29 27 26 26 26 26 26 27 28 27 26 25 24 24 25 26 26 25 23 21 19 18 18 18 18 17 16
32 39 40 35 30 32 38 39 34 34 40 39 38 37 24 9 6 6 5 4 4 14 29 28 17 13 16 24 31 37 45 47 41 36 36 40 44 44 44 43 41 39 38 36 32 27 27 27 22 20 24 28 31 31 29 29 30 31 31 30 29 27 26 26 26 26 27 28 28 27 26 25 25 25 25 25 25 24 22 20 19 18 17 17 16 14
24 26 40 46 37 32 38 42 38 34 39 40 39 39 33 21 12 6 4 4 3 8 21 23 15 9 13 22 29 32 34 40 41 40 39 39 41 42 42 44 43 40 39 38 34 29 27 26 22 20 24 29 31 31 30 29 29 30 31 31 30 28 27 26 26 26 26 27 27 28 27 27 26 25 24 24 24 24 23 21 20 19 17 16 16 15
27 27 36 40 37 33 33 38 41 35 35 39 38 38 40 36 23 8 4 8 7 4 12 18 10 6 12 19 27 29 27 29 32 38 45 44 41 44 44 45 43 39 39 40 37 31 28 26 22 20 23 28 30 31 31 29 28 29 30 31 31 29 28 27 27 27 26 25 26 27 28 28 27 26 25 24 24 24 23 22 21 20 17 16 16 16
21 28 29 27 33 37 32 32 40 39 34 36 40 42 42 38 29 16 7 9 12 6 11 20 14 7 11 15 21 28 27 25 24 32 45 46 42 44 45 43 40 37 39 41 40 35 30 27 23 22 23 26 29 31 31 30 28 28 28 29 30 31 31 30 29 27 26 25 26 27 28 28 28 27 26 25 24 24 23 23 22 20 19 18 17 17
14 22 25 23 30 38 35 30 35 40 37 35 43 45 38 30 29 25 12 5 7 5 7 20 23 16 13 15 22 28 29 29 26 27 38 45 43 43 42 40 40 39 39 41 41 37 32 28 26 24 23 24 27 27 25 25 26 27 27 27 30 32 32 32 30 28 27 27 27 28 28 29 28 27 26 25 24 23 23 24 23 21 20 18 18 18
12 16 23 28 27 33 37 35 36 41 42 39 40 41 35 26 25 26 16 6 6 4 2 13 22 22 21 23 27 30 32 34 33 30 34 40 43 42 41 39 37 38 40 41 41 40 34 28 26 25 22 24 26 25 22 23 25 26 27 27 28 30 31 31 30 29 28 28 28 28 29 29 29 28 26 25 24 24 24 23 23 21 20 18 18 19
9 7 16 30 28 27 36 43 42 44 46 43 37 38 41 34 28 27 21 11 7 4 4 7 9 18 29 32 34 38 40 41 40 36 34 36 37 39 41 40 37 36 39 40 40 41 35 27 25 25 24 25 26 26 26 26 26 25 26 27 27 29 30 31 31 30 29 28 29 29 29 29 29 28 27 26 25 25 24 22 21 21 20 19 19 19
5 4 13 31 30 23 33 45 49 48 47 45 39 38 43 37 29 27 24 21 13 3 4 5 3 17 30 28 30 36 38 42 45 41 38 36 33 33 36 40 40 37 37 38 39 41 35 27 24 25 25 26 26 27 29 28 26 24 24 26 26 27 30 32 32 31 29 29 29 30 30 30 30 28 27 27 26 25 23 22 21 20 20 21 20 19
11 11 15 29 29 24 29 39 48 49 43 42 41 40 42 38 30 20 15 24 26 11 6 6 4 19 28 21 22 26 25 32 41 42 43 42 37 32 32 36 39 37 36 36 38 40 34 27 26 26 27 28 28 29 30 28 26 25 24 25 26 27 29 30 31 31 29 29 29 30 31 30 30 29 28 28 27 26 25 23 22 21 21 21 20 19
20 15 16 27 32 30 29 29 38 46 43 40 40 39 41 41 38 26 14 22 30 23 19 11 5 18 23 16 16 20 21 26 32 38 43 44 40 35 32 31 32 34 34 33 36 38 32 26 26 27 28 29 30 30 29 28 27 26 25 25 26 27 27 28 30 30 28 28 27 28 30 30 30 30 29 29 29 27 26 24 22 22 22 21 20 20
16 5 9 20 29 35 35 27 27 38 43 41 39 40 41 43 45 38 28 27 27 25 24 10 6 19 19 11 16 21 23 27 28 34 41 42 39 35 35 33 29 30 32 31 35 35 29 25 27 28 28 28 30 31 31 29 27 26 26 27 27 27 26 26 28 29 28 28 26 27 29 31 32 32 31 31 30 28 26 25 24 23 22 21 21 21
16 10 15 15 13 19 26 23 21 29 42 44 42 42 43 44 46 40 33 29 24 27 29 12 8 25 20 9 20 23 25 28 26 31 37 41 39 36 38 38 33 31 32 33 36 35 28 26 28 29 29 29 30 32 31 29 28 27 27 28 27 27 26 26 27 27 27 27 27 28 29 30 32 32 33 32 30 29 27 25 25 24 23 22 21 21
22 19 16 11 5 5 9 10 9 15 31 44 46 46 45 45 46 40 32 26 19 25 33 22 20 34 27 17 21 17 20 25 25 30 35 37 37 35 38 41 36 33 34 34 34 32 29 28 29 30 30 29 30 31 31 30 29 28 28 28 28 27 26 26 26 26 26 25 26 27 28 30 31 32 32 32 31 29 28 26 26 25 24 22 22 21
23 16 7 11 16 17 17 12 7 3 12 33 46 48 45 43 44 43 35 28 22 23 30 33 34 38 32 22 16 6 18 26 29 32 35 34 33 31 34 40 37 31 32 32 30 30 31 29 29 30 30 30 30 29 28 28 29 28 28 28 27 27 26 26 26 26 25 24 24 26 28 29 30 30 31 31 30 29 28 28 27 26 25 23 23 22
22 15 5 10 19 24 27 20 10 6 14 20 40 48 44 39 41 44 39 33 28 22 22 30 34 35 31 21 10 9 20 26 28 30 31 33 32 28 29 36 36 31 30 28 28 31 33 30 29 30 31 30 29 26 24 24 26 27 28 27 26 26 26 26 26 25 24 23 24 24 25 26 27 28 29 29 29 29 29 28 28 27 25 25 24 24
22 17 13 19 18 20 27 20 12 11 14 15 33 47 47 42 39 42 43 39 33 26 23 25 26 28 27 20 13 14 22 25 24 24 28 31 31 29 29 33 36 34 30 28 31 33 32 29 27 29 30 30 27 25 23 20 22 24 26 26 26 27 26 26 26 25 24 24 23 22 21 22 23 25 26 27 28 28 28 28 28 27 27 26 26 25
19 16 19 27 17 15 23 19 12 10 9 10 31 44 46 45 42 40 41 40 36 32 29 26 24 23 23 21 18 17 22 26 24 22 27 31 31 31 31 32 33 34 32 32 33 32 28 25 24 25 28 29 27 26 23 19 20 22 23 25 27 28 27 27 26 26 25 25 22 20 19 20 20 21 23 24 25 26 27 28 28 28 28 27 27 26
19 18 22 29 18 7 14 17 10 6 9 6 26 39 43 46 45 39 37 38 36 33 31 28 25 24 23 22 20 17 18 24 25 24 27 30 29 30 32 32 31 32 34 36 34 31 28 25 22 23 27 28 27 25 22 19 19 20 20 23 26 27 27 27 27 27 27 25 23 21 21 20 20 20 20 21 23 24 25 26 27 28 28 27 27 26
19 21 23 30 23 8 8 15 9 4 7 13 12 19 30 38 42 38 32 34 32 26 28 29 24 22 20 16 17 17 18 23 27 27 27 28 27 27 29 31 31 31 33 35 34 33 29 25 24 25 26 26 25 24 22 20 20 19 18 21 23 25 26 28 29 29 28 27 25 24 24 23 22 21 20 20 21 22 23 25 27 27 27 27 27 26
18 21 23 27 23 13 2 15 11 3 7 13 19 12 11 22 36 34 21 24 28 22 21 25 22 22 23 23 24 25 23 25 29 29 28 28 27 26 28 31 32 32 32 33 34 32 28 25 25 25 24 23 21 20 20 21 21 19 18 18 20 22 24 27 29 30 29 29 28 27 27 26 25 23 22 21 20 20 22 24 25 26 26 26 26 26
16 18 21 21 17 18 10 12 15 2 6 10 20 24 22 17 26 29 20 21 28 23 16 19 25 31 33 30 30 31 30 29 30 30 29 27 27 29 31 31 33 35 36 35 35 33 30 26 24 24 24 22 19 17 17 19 21 20 19 19 19 20 22 24 26 28 28 29 29 30 29 28 28 27 25 24 22 22 22 23 23 24 24 25 25 26
15 16 19 18 16 20 16 5 11 1 6 8 16 26 30 27 20 26 27 25 24 22 21 24 31 38 38 37 37 36 36 35 32 30 27 25 26 29 32 33 35 39 41 39 37 35 33 29 26 24 23 21 19 18 19 20 20 20 21 23 22 21 22 22 23 24 24 25 26 27 28 30 30 30 29 28 26 25 25 24 23 23 23 24 24 24
15 16 17 19 16 15 15 6 5 5 4 5 13 24 30 28 24 23 25 24 24 28 29 30 35 38 38 40 41 41 41 38 34 31 30 28 27 27 30 32 35 38 40 39 38 37 35 32 29 26 25 24 23 21 22 23 22 22 23 25 25 23 23 22 21 21 21 21 21 23 25 27 29 31 32 31 31 30 28 26 25 24 23 23 24 23
13 16 17 17 12 11 17 15 4 8 3 2 8 12 16 20 24 25 24 26 29 33 34 35 37 36 36 38 40 43 44 41 36 35 34 33 33 32 32 33 33 35 36 37 39 38 37 35 32 30 28 26 25 24 24 25 25 25 25 27 27 26 25 24 22 20 19 17 17 17 18 21 24 27 30 32 33 34 33 31 29 27 26 26 25 25
11 13 14 14 10 13 19 15 3 4 1 6 7 6 7 14 23 27 28 28 30 33 36 38 37 33 33 35 37 41 44 42 39 39 35 34 35 36 36 36 35 35 34 35 36 37 36 34 31 30 28 26 26 26 27 27 27 27 27 28 29 27 26 26 24 21 19 17 15 15 14 15 18 22 25 29 31 33 34 34 34 32 30 29 28 28
7 10 11 13 15 16 16 10 3 3 6 8 7 3 12 15 22 30 29 25 25 28 32 36 38 34 33 33 33 38 45 46 43 39 34 34 35 35 36 37 36 36 35 34 33 32 32 31 29 28 26 24 24 24 24 25 26 25 26 27 29 28 28 28 25 23 21 18 17 16 15 14 15 18 22 25 26 27 29 31 34 35 35 34 33 32
6 7 8 12 15 14 12 8 3 6 12 12 9 2 12 17 26 29 19 15 19 24 27 32 37 35 32 31 32 37 43 46 43 37 33 33 33 33 35 35 35 35 35 34 32 29 29 28 27 25 22 21 20 20 21 22 22 22 22 24 25 26 27 28 26 24 22 20 19 18 17 16 15 16 20 22 23 23 24 25 28 31 34 36 37 36
5 6 6 10 12 11 11 8 2 7 13 11 7 2 7 16 21 18 13 11 17 22 23 29 34 34 32 31 33 34 37 40 38 35 33 30 29 30 31 31 31 32 31 31 29 27 25 24 23 22 21 20 20 19 20 20 21 21 21 21 22 23 24 24 24 24 23 22 21 19 19 18 17 16 18 20 22 23 23 24 25 26 29 32 35 36
6 5 7 10 7 6 7 5 1 6 12 11 9 6 4 15 18 17 14 15 16 19 23 27 30 31 32 31 32 33 34 34 33 34 34 30 28 28 28 28 28 27 27 27 26 25 24 23 23 22 21 21 20 19 20 20 21 22 22 22 21 21 22 23 24 24 23 23 23 22 21 20 20 19 18 19 22 24 25 25 25 26 27 28 30 32
10 5 8 12 8 6 10 8 4 6 13 13 9 5 10 18 19 15 11 12 13 18 24 26 27 29 31 32 32 33 32 32 31 31 32 31 31 29 28 28 27 25 25 25 25 25 25 24 24 23 22 22 22 22 22 23 24 25 25 25 23 22 23 24 24 24 24 24 24 24 24 23 22 21 20 20 21 24 26 27 27 27 28 28 28 29
15 10 9 10 7 7 12 12 8 9 15 15 11 11 16 17 12 10 10 9 10 14 23 26 26 26 27 28 30 31 30 29 28 28 29 30 30 30 29 29 28 26 26 26 26 26 26 26 26 25 24 24 25 25 26 27 28 29 30 30 28 26 25 24 25 25 24 24 24 25 25 25 24 23 23 22 22 23 25 27 28 29 29 29 30 30
16 15 10 7 5 4 7 10 8 8 12 15 12 10 10 10 6 6 9 6 4 11 21 26 25 24 24 24 24 26 28 27 26 25 25 26 26 27 27 26 26 26 26 27 27 27 27 28 28 28 27 27 27 27 28 30 31 32 33 33 33 31 29 28 27 26 25 25 25 25 25 25 25 25 24 23 24 24 24 25 27 29 30 31 32 32
12 14 10 7 5 1 4 5 3 5 8 9 7 5 3 2 3 3 6 5 4 7 14 21 22 23 22 21 20 22 24 24 24 23 23 24 24 24 24 23 23 22 22 23 24 24 24 24 25 26 28 29 29 29 30 30 31 33 34 34 34 33 32 31 29 28 27 26 26 26 26 25 26 25 24 23 24 25 25 25 26 28 30 32 33 34
9 10 8 9 6 2 1 2 3 6 9 4 3 3 4 4 2 2 4 4 3 4 8 13 17 19 19 19 19 20 20 20 21 21 21 22 22 23 22 21 21 20 20 21 21 21 21 21 22 24 27 29 30 30 30 31 32 33 34 34 34 33 34 34 33 31 30 29 28 28 27 27 27 26 25 24 24 25 26 26 27 27 28 29 32 33
11 10 10 10 8 4 5 7 8 6 4 2 7 7 6 5 5 6 6 5 2 1 4 8 10 11 13 15 17 18 17 17 18 18 18 18 18 18 18 18 18 18 19 20 21 22 23 23 23 24 26 28 28 28 29 30 32 33 34 34 34 33 33 34 34 34 33 32 31 30 29 29 29 28 27 27 26 26 27 27 27 27 27 28 29 30
12 12 14 14 12 9 9 11 11 9 8 8 9 11 11 10 10 10 10 8 6 4 2 5 7 5 6 10 13 14 14 15 16 17 17 16 15 14 13 13 12 13 14 16 17 18 20 22 24 25 25 26 27 26 27 29 30 31 32 32 32 32 32 32 33 34 35 35 34 33 32 32 32 31 31 31 30 29 28 28 28 28 28 29 29 29
14 15 16 17 17 13 10 11 14 13 14 14 12 13 16 18 17 16 16 15 12 10 7 5 4 3 3 7 8 9 11 13 15 16 17 17 17 15 13 12 11 11 12 14 14 15 15 17 19 21 22 22 23 23 23 24 26 28 29 29 30 30 30 30 31 32 33 34 35 35 35 34 33 32 33 33 33 31 30 30 31 31 30 29 29 30
16 18 19 21 22 18 14 14 16 18 19 19 17 16 18 21 22 21 22 22 20 15 13 10 8 7 6 6 6 6 8 11 12 13 15 17 17 17 16 14 13 13 14 14 15 15 15 15 16 18 19 18 18 19 19 19 20 22 24 26 27 28 29 29 29 29 30 31 32 34 34 33 32 32 32 33 33 32 32 32 32 32 32 31 30 30
Wind_Direction
189 195 202 206 206 206 206 207 213 218 219 224 226 227 228 230 226 218 221 219 213 223 226 222 224 223 221 219 216 217 219 218 216 214 217 220 218 215 212 208 207 205 201 201 203 204 204 205 203 204 209 210 208 206 204 204 204 203 202 199 200 204 206 203 200 201 204 205 203 203 203 202 201 203 205 202 197 195 197 201 200 197 195 194 197 197
191 203 209 209 207 209 213 211 212 218 221 225 228 226 225 228 229 220 220 222 219 229 236 227 223 223 224 224 219 215 213 214 214 214 217 218 216 220 223 215 208 204 201 203 205 203 201 202 202 202 207 211 209 206 205 206 207 206 205 202 201 206 210 207 203 204 206 207 206 205 203 201 202 204 204 202 199 196 196 200 200 198 196 195 197 199
199 211 213 210 208 210 216 217 215 216 220 225 225 226 229 229 230 230 231 231 224 229 238 233 225 226 227 225 219 212 212 217 218 215 217 220 220 223 226 221 211 204 203 206 208 206 200 199 202 204 207 212 211 206 204 205 208 209 207 204 203 206 211 211 206 206 207 207 207 206 203 202 204 205 204 204 202 197 195 198 201 200 198 196 197 200
205 217 216 208 207 210 214 217 218 217 220 223 222 226 231 228 231 237 234 233 230 228 236 238 231 228 227 224 220 218 220 220 217 216 221 229 230 227 225 222 218 212 207 207 209 209 202 198 202 206 208 211 212 208 202 203 206 208 207 205 205 207 210 212 208 207 207 206 206 205 202 201 205 207 206 207 205 198 194 196 199 200 199 198 199 201
207 218 219 210 207 208 211 214 217 218 220 221 219 223 229 227 229 235 234 235 237 233 236 237 229 223 221 219 215 215 219 216 211 214 220 229 234 231 226 223 225 222 212 210 211 212 207 202 204 208 210 211 212 210 205 203 205 207 206 204 205 206 209 211 207 204 205 206 206 204 202 200 202 205 205 204 204 198 193 195 199 200 200 202 203 204
213 216 218 213 210 207 209 213 213 215 219 222 219 218 223 226 228 236 241 248 253 251 244 231 218 213 216 216 211 203 204 207 209 213 217 223 229 226 224 223 225 223 215 213 216 219 216 209 207 208 210 212 213 212 208 205 206 209 208 204 203 204 207 210 207 204 205 207 207 205 203 201 202 204 203 201 200 198 194 195 201 204 204 205 207 209
220 217 215 216 214 210 210 214 213 212 217 223 221 216 219 226 232 239 244 251 256 256 255 234 216 206 210 212 209 199 196 201 208 213 217 224 228 223 222 224 220 216 212 212 215 220 223 218 213 211 211 213 214 212 208 205 206 209 209 207 204 202 203 208 209 205 204 207 208 208 206 204 205 206 204 200 200 200 198 196 202 207 208 208 210 214
223 219 215 216 222 215 211 214 213 210 215 224 224 219 221 227 232 239 244 249 253 255 269 246 216 202 201 207 209 201 197 199 205 211 217 223 227 224 224 224 219 215 210 206 207 212 218 220 219 218 217 215 214 211 206 203 204 207 209 208 207 204 201 204 209 208 205 207 208 208 207 205 206 207 205 203 202 203 201 198 201 208 211 211 212 217
222 219 215 213 221 221 216 215 212 210 216 223 225 223 225 228 232 240 245 250 256 259 273 257 219 202 198 204 207 203 199 199 203 210 216 221 224 224 225 227 222 218 214 206 204 209 217 221 221 220 219 217 214 212 207 203 201 204 208 210 209 206 202 202 207 209 207 206 208 209 208 205 204 204 204 204 205 206 204 200 202 208 213 215 215 219
223 224 220 214 218 223 223 218 212 212 218 221 222 225 228 232 238 245 248 249 255 255 260 260 233 218 207 201 201 198 198 202 206 213 219 222 223 223 225 230 228 221 216 210 207 213 223 227 222 218 215 214 213 211 208 204 203 203 206 210 210 207 204 202 205 210 210 207 208 209 208 206 203 202 203 204 206 207 208 204 204 208 213 218 219 220
227 231 229 223 221 221 226 224 216 214 218 220 220 222 228 235 241 247 247 244 249 244 247 256 243 230 230 201 199 198 202 208 212 217 220 220 221 223 228 233 232 225 218 213 210 212 219 224 220 215 212 211 211 208 205 203 203 203 205 208 210 208 206 204 204 208 211 210 210 210 209 208 205 204 205 207 208 208 210 208 205 208 212 219 223 221
228 229 229 230 227 220 221 227 224 219 217 217 218 220 227 235 238 242 242 236 234 231 243 251 245 233 240 210 203 205 212 214 215 219 219 218 220 223 229 233 234 231 223 215 212 209 211 215 213 210 209 208 209 207 202 201 202 202 204 205 207 208 207 205 204 206 209 211 211 210 210 210 208 207 208 211 213 214 213 211 208 208 210 217 223 222
227 227 226 229 232 221 216 221 223 218 216 214 215 219 221 228 233 234 234 228 211 229 241 244 240 235 243 236 217 210 213 213 216 222 221 221 223 225 228 230 231 232 225 216 212 209 209 212 212 210 208 206 205 205 201 200 201 201 202 203 205 207 207 206 206 205 207 210 211 210 210 211 211 211 211 212 216 219 219 217 216 215 213 217 225 227
227 229 226 224 229 223 214 215 215 210 210 210 212 215 212 197 212 224 221 230 206 226 238 238 231 231 237 240 228 214 214 214 216 222 224 225 226 226 228 228 228 229 225 218 212 209 212 215 216 215 211 208 204 202 200 201 202 201 201 201 203 205 206 207 207 206 208 209 210 210 210 212 213 213 213 212 214 218 220 220 220 220 220 221 227 232
222 225 224 220 221 224 217 214 213 211 210 209 209 213 216 211 203 206 209 217 186 216 235 233 225 219 223 233 230 222 219 218 218 223 226 228 230 229 229 227 226 226 224 220 213 211 218 220 221 220 216 213 208 203 202 203 204 204 202 201 201 202 205 207 207 207 208 209 210 211 211 212 214 215 215 214 213 215 217 219 219 219 220 220 223 228
229 231 229 223 219 222 222 216 213 214 212 207 206 212 220 220 212 215 257 234 211 196 235 231 220 211 229 238 232 226 226 223 224 228 226 226 228 229 229 226 225 225 224 220 215 214 220 221 222 222 218 216 212 208 207 206 206 206 204 202 200 200 203 207 209 208 207 207 210 212 212 212 214 215 215 214 213 212 214 217 219 218 216 215 217 221
237 240 235 230 224 220 222 219 211 211 211 204 204 213 220 221 219 222 243 225 206 201 235 236 237 222 221 233 226 222 225 222 225 229 225 223 223 223 226 226 225 226 223 220 218 216 217 217 217 217 216 214 211 210 210 210 210 210 207 204 200 198 200 204 207 208 206 206 209 211 212 213 214 215 215 214 214 214 214 216 218 219 215 212 213 216
246 255 235 224 229 221 215 220 216 213 214 206 203 210 213 218 225 225 225 199 188 199 231 234 241 239 220 225 225 220 220 220 223 226 222 220 221 222 225 226 225 226 223 219 220 217 214 215 215 214 215 213 210 211 210 210 211 211 209 206 202 200 200 202 204 205 205 206 208 209 210 212 214 215 215 215 216 217 217 217 218 220 218 212 211 212
260 273 231 212 224 224 211 215 222 216 216 215 210 207 201 203 213 213 213 206 189 198 234 231 238 241 236 236 235 228 222 220 221 225 224 220 219 223 225 222 221 226 224 219 219 217 214 216 217 217 218 213 210 210 207 204 206 207 207 205 204 203 202 202 204 205 205 207 208 209 210 211 213 215 216 217 218 219 219 218 218 220 220 216 212 211
275 306 242 215 214 223 212 212 220 215 213 217 217 207 204 209 211 205 207 206 185 181 224 230 235 241 244 243 240 237 230 223 222 227 231 224 216 219 222 218 217 223 223 220 219 218 216 218 219 217 215 210 206 206 206 205 204 203 203 204 205 205 204 203 203 204 205 207 208 209 210 211 212 213 215 216 217 219 220 219 219 220 220 219 216 213
266 338 263 228 221 229 217 211 215 214 208 209 208 202 201 208 212 212 216 215 206 164 183 202 231 239 241 239 235 236 233 227 224 227 232 229 221 220 220 218 218 220 220 220 222 220 217 217 217 214 211 209 207 207 209 210 206 202 201 203 205 206 207 205 203 203 205 207 208 210 211 212 212 212 213 214 215 217 217 217 218 219 220 221 220 216
337 324 278 245 244 249 227 214 216 216 210 206 204 202 201 201 199 200 216 219 217 220 205 187 229 243 242 241 239 239 236 227 220 220 227 232 230 226 219 215 218 221 220 220 224 223 218 216 216 215 211 209 210 210 211 212 210 206 203 202 204 207 209 208 206 204 204 207 210 211 213 213 213 213 213 213 214 214 214 215 216 218 221 223 224 221
339 315 280 259 253 243 228 220 218 218 216 211 208 207 206 202 198 196 199 209 212 223 232 226 253 250 240 240 256 254 242 232 222 218 223 228 228 224 216 211 215 222 223 222 225 222 217 216 218 216 211 209 211 212 212 213 211 206 203 203 206 207 208 209 208 206 206 208 211 213 214 214 213 213 213 214 215 214 214 215 216 218 222 223 226 226
344 327 299 278 256 241 234 232 229 221 216 214 211 208 207 205 205 206 207 206 204 214 226 228 271 249 227 227 273 268 248 239 228 220 220 220 221 219 216 214 213 217 219 221 224 219 213 215 215 211 209 208 210 210 210 211 207 203 202 203 205 206 207 209 209 207 206 206 211 214 216 216 215 214 215 215 216 215 215 216 217 220 222 223 226 227
331 325 325 306 265 244 241 243 250 231 214 212 211 208 208 207 207 208 209 210 207 213 218 208 248 243 225 240 277 267 247 238 223 215 215 216 216 216 217 218 214 212 211 215 221 216 210 211 208 205 206 206 206 205 205 206 203 200 201 202 204 204 205 209 210 209 206 204 208 213 216 218 217 217 217 216 217 216 216 217 218 221 223 224 226 226
315 310 309 293 252 228 233 231 247 235 215 211 211 209 209 206 205 205 203 204 204 212 218 216 234 241 237 261 284 267 230 219 203 202 209 211 213 216 218 218 213 209 208 212 219 214 207 206 202 201 204 204 202 201 201 202 200 199 201 202 203 203 204 207 210 210 207 203 206 212 217 220 220 220 220 219 219 218 217 218 219 221 223 225 227 228
319 310 275 268 271 266 266 250 214 273 244 217 209 208 209 205 205 207 203 204 204 207 217 223 233 242 247 264 285 239 187 188 187 197 205 207 210 215 218 216 209 206 208 212 216 211 206 205 201 200 202 201 201 200 201 202 201 200 201 203 204 203 204 208 210 212 209 203 203 208 214 219 221 223 223 223 222 221 220 220 220 222 223 225 229 230
325 318 304 304 288 264 260 256 230 298 308 244 212 205 206 204 203 206 205 207 208 204 216 227 233 240 247 256 260 182 174 181 187 196 202 205 209 211 210 208 205 206 209 210 211 207 205 204 200 198 199 200 201 200 201 205 205 204 204 205 206 205 206 209 212 214 213 207 204 205 210 217 221 224 226 226 226 225 224 224 223 224 225 226 230 232
325 322 341 338 308 242 231 241 246 277 304 259 212 202 203 205 204 206 208 210 212 213 219 227 232 238 243 246 236 194 180 181 186 192 198 204 208 207 200 199 204 209 205 200 202 203 203 202 199 198 199 200 201 200 202 206 205 204 206 207 209 208 208 211 215 217 217 214 209 206 207 213 218 222 225 226 227 227 227 227 227 227 227 228 230 232
326 323 349 349 327 226 220 237 250 282 307 231 204 200 202 207 207 209 210 210 214 218 221 227 235 239 236 231 226 206 187 184 185 188 194 198 203 203 199 197 203 206 198 192 193 196 199 200 199 198 199 200 202 202 205 208 203 202 204 206 209 209 209 212 217 219 220 219 215 210 209 212 216 220 222 224 226 227 227 228 229 229 229 229 231 231
326 325 352 355 342 244 229 235 231 325 356 173 191 198 201 205 210 213 212 213 216 219 221 228 232 229 225 224 223 216 201 194 191 189 191 194 199 203 200 197 199 200 197 193 192 194 196 195 193 193 195 197 200 203 206 207 202 201 204 206 207 209 209 212 217 220 221 222 218 214 213 214 215 217 220 223 225 226 227 228 229 231 231 231 231 231
322 328 352 356 343 322 229 221 220 3 55 106 138 189 198 202 207 210 211 213 216 220 222 224 222 212 203 195 188 185 188 194 195 193 191 192 197 201 199 197 197 197 197 195 195 195 193 189 185 186 190 194 198 202 205 203 200 200 203 203 204 206 208 212 217 219 221 222 220 217 216 215 216 217 218 221 224 225 226 227 229 231 232 232 232 232
318 329 350 354 340 337 247 209 217 10 79 81 57 68 151 186 199 200 191 194 206 218 224 219 205 181 170 167 162 162 170 182 186 188 190 192 193 191 191 194 196 196 197 198 198 195 189 187 186 185 187 191 195 201 204 204 205 209 213 213 208 205 207 211 215 218 219 220 221 220 218 217 217 218 218 219 222 225 227 227 229 231 232 233 233 234
313 325 345 351 325 325 336 210 211 347 72 88 63 72 94 131 182 187 164 171 199 209 200 184 163 149 153 162 163 161 164 167 169 175 183 188 187 184 184 190 195 197 199 199 197 193 188 187 190 191 192 193 196 203 209 213 216 221 229 230 220 211 212 214 214 216 217 217 219 221 221 220 220 219 219 220 221 223 226 227 228 231 232 233 234 234
310 321 339 345 317 318 337 224 200 88 93 116 82 86 98 107 142 177 176 176 185 175 153 142 136 138 147 159 162 162 161 160 161 163 166 171 180 183 185 191 197 200 201 199 195 194 192 191 194 197 199 200 201 204 210 217 221 225 231 234 226 216 213 213 212 211 211 212 214 217 219 221 222 222 221 221 222 223 224 225 226 228 229 231 233 233
314 322 326 335 332 330 338 331 191 166 161 156 115 108 109 111 125 153 162 155 150 146 139 130 129 132 137 147 157 159 159 164 165 155 147 151 161 171 178 186 193 197 198 197 195 197 197 198 200 202 204 203 201 203 210 216 222 227 230 231 228 219 212 211 210 208 205 205 207 209 212 216 220 223 224 223 224 224 224 224 225 226 227 229 231 232
300 309 311 321 335 341 335 329 258 195 203 84 102 90 81 93 108 116 116 117 129 136 130 126 133 134 127 134 146 152 161 172 165 145 139 144 149 155 163 170 179 186 189 191 194 197 200 202 205 205 204 203 202 207 215 220 224 227 227 226 225 220 214 213 214 214 213 210 208 207 207 208 212 217 222 224 226 227 226 226 226 226 227 228 230 232
284 299 310 311 305 321 331 332 289 213 331 19 26 39 77 99 107 111 107 104 117 128 127 130 140 144 138 137 140 150 165 171 154 136 138 144 146 150 153 157 166 174 178 184 190 195 198 200 200 199 199 201 206 212 217 221 225 226 224 223 222 219 218 219 219 221 223 222 223 222 218 211 206 207 213 219 224 226 228 228 228 228 228 229 230 232
295 302 312 304 290 300 320 336 17 30 7 348 336 99 122 125 128 127 114 94 96 113 126 136 144 150 152 147 148 160 168 161 144 136 140 144 146 149 150 153 159 163 166 171 176 182 186 187 187 189 192 197 204 209 211 212 214 215 215 216 217 217 219 221 222 224 226 228 231 234 233 228 217 208 207 211 216 220 224 227 229 230 230 231 232 233
311 305 306 303 292 293 313 335 23 37 13 340 294 152 111 133 147 138 114 76 82 100 119 138 148 155 158 157 162 169 163 150 140 137 141 145 147 149 150 152 157 159 161 163 165 169 173 175 179 183 187 192 198 202 205 205 206 209 212 216 219 221 222 223 224 226 229 232 234 235 237 237 231 221 214 210 210 211 215 220 224 227 230 232 233 235
323 324 330 318 304 299 310 318 1 36 13 345 295 321 104 144 147 124 100 99 95 95 112 133 146 156 160 164 173 171 155 145 142 139 140 146 150 152 153 154 158 161 164 165 168 170 172 173 177 180 185 191 196 201 206 210 213 216 218 221 225 229 231 232 232 233 236 241 242 241 242 241 241 236 227 220 216 212 209 211 216 220 225 229 232 234
355 340 7 1 339 327 329 322 21 36 14 356 332 335 128 141 119 89 103 133 113 97 111 125 134 147 156 162 171 170 156 147 145 142 144 150 154 157 159 158 160 164 167 172 177 179 179 179 180 183 188 195 201 206 211 217 221 223 224 224 225 228 231 234 236 237 239 243 247 250 251 249 248 247 241 233 225 218 213 211 213 215 219 223 227 231
44 42 28 24 20 22 33 50 71 18 11 10 4 30 95 109 101 87 108 147 135 109 112 119 123 134 145 153 162 167 161 153 150 148 150 154 157 161 163 165 167 169 171 176 182 185 187 188 188 192 197 202 208 213 217 222 227 230 231 230 228 228 228 229 231 232 234 237 242 248 254 255 255 253 251 246 238 229 222 218 215 216 217 219 222 227
53 45 23 26 33 26 35 48 46 16 17 28 47 64 65 71 87 99 105 140 157 123 112 115 118 123 133 142 150 158 160 157 155 155 156 159 161 163 166 169 172 174 176 182 188 192 195 197 198 202 206 210 215 218 222 225 229 232 234 235 234 233 232 230 230 230 231 233 236 241 247 252 254 254 254 253 250 244 236 227 222 220 219 219 221 225
43 30 17 16 16 14 35 40 37 29 25 24 32 44 43 41 66 111 110 114 133 120 115 112 109 114 125 133 141 151 156 158 159 161 163 166 168 170 172 173 174 176 180 185 192 197 201 204 207 211 216 220 223 223 225 227 230 232 234 236 236 235 233 231 230 231 232 233 235 238 240 245 249 251 252 253 254 253 249 240 232 226 223 223 224 226
33 24 27 17 354 16 73 49 66 85 49 20 8 8 355 10 51 116 139 122 70 88 112 110 103 105 115 127 140 149 153 156 160 164 168 173 176 181 185 186 186 187 188 192 198 204 207 211 216 220 224 228 230 230 231 230 231 232 234 235 236 235 233 231 230 230 231 232 234 237 239 242 246 249 251 252 253 255 255 251 245 237 231 228 228 229
18 12 20 15 6 18 5 290 177 102 58 19 267 277 277 252 243 206 176 153 82 71 110 117 108 100 102 117 136 145 150 156 160 165 172 178 183 189 194 199 204 206 208 212 218 223 228 231 233 233 231 231 231 232 234 233 233 233 233 234 235 235 234 234 233 232 231 232 234 237 240 243 246 249 252 253 253 253 254 253 251 248 242 237 234 234
351 341 338 343 349 337 292 257 205 141 79 264 245 257 270 268 262 244 224 211 194 116 118 124 118 100 94 108 123 133 142 153 159 164 171 179 188 196 202 209 216 222 228 234 239 244 247 250 250 246 240 236 234 233 233 234 234 234 233 234 235 236 237 237 236 235 234 234 235 237 240 243 245 248 251 253 254 253 254 254 254 254 252 250 247 243
324 319 320 321 311 289 276 266 245 213 194 211 243 258 263 275 282 269 254 244 232 234 215 142 129 110 94 103 112 119 130 146 155 160 166 171 176 186 195 202 210 222 234 242 246 250 253 254 253 250 245 241 239 237 236 236 236 236 236 236 236 237 239 238 238 237 237 236 236 238 240 243 245 246 248 250 252 253 254 256 256 256 256 256 256 253
318 313 312 310 296 275 266 277 275 256 232 224 233 249 259 267 273 277 277 268 250 245 250 225 185 178 145 125 118 115 125 141 152 158 164 168 169 173 180 186 192 205 222 233 239 241 244 246 247 247 244 242 242 241 241 240 239 238 239 239 238 239 239 239 239 238 238 238 238 239 241 245 247 247 247 247 248 250 250 252 253 255 256 257 256 255
315 311 309 306 295 278 266 271 273 266 255 245 238 242 252 259 263 267 273 273 267 259 253 243 229 225 208 175 155 141 140 148 155 160 165 169 172 176 181 187 194 201 211 223 228 229 230 232 234 236 238 239 241 241 242 243 242 241 240 240 240 240 239 240 241 240 240 240 240 241 243 245 247 247 246 245 245 245 245 246 248 251 253 253 252 250
Height
3114 3115 3112 3108 3108 3112 3115 3118 3122 3125 3128 3130 3132 3133 3133 3134 3134 3136 3137 3138 3142 3143 3143 3144 3143 3144 3147 3145 3146 3149 3151 3153 3154 3156 3158 3159 3161 3162 3164 3164 3165 3166 3168 3169 3171 3172 3174 3175 3177 3178 3179 3180 3182 3184 3186 3187 3189 3191 3193 3195 3197 3199 3201 3202 3204 3206 3207 3209 3211 3212 3214 3216 3218 3219 3220 3221 3223 3224 3225 3225 3226 3227 3227 3228 3229 3230
3112 3108 3102 3102 3107 3113 3117 3119 3122 3125 3127 3128 3130 3131 3131 3131 3132 3134 3135 3135 3140 3141 3140 3141 3142 3143 3145 3144 3144 3146 3149 3149 3150 3152 3154 3156 3158 3160 3162 3163 3164 3165 3167 3168 3169 3170 3172 3173 3175 3176 3177 3178 3179 3181 3183 3185 3187 3189 3191 3194 3196 3197 3199 3201 3203 3205 3206 3208 3210 3212 3214 3216 3217 3218 3220 3221 3222 3224 3224 3225 3226 3226 3227 3228 3229 3230
3107 3099 3096 3103 3110 3114 3116 3119 3121 3123 3125 3126 3127 3128 3128 3128 3130 3132 3132 3133 3138 3139 3138 3140 3140 3140 3142 3143 3142 3142 3144 3145 3146 3148 3150 3152 3154 3157 3158 3160 3162 3164 3165 3166 3167 3168 3170 3171 3173 3174 3175 3176 3178 3180 3182 3184 3186 3188 3189 3192 3194 3196 3197 3200 3202 3204 3206 3208 3210 3212 3214 3215 3216 3218 3219 3220 3221 3223 3224 3224 3225 3226 3227 3228 3228 3229
3097 3090 3094 3105 3109 3112 3115 3117 3119 3121 3123 3123 3124 3124 3123 3125 3128 3127 3127 3131 3135 3136 3136 3137 3137 3136 3139 3141 3140 3139 3140 3141 3143 3145 3147 3149 3151 3153 3155 3157 3160 3161 3162 3163 3164 3166 3168 3169 3170 3171 3172 3174 3176 3178 3180 3182 3183 3185 3187 3190 3192 3194 3196 3198 3201 3203 3205 3207 3208 3210 3212 3214 3215 3216 3218 3219 3219 3221 3222 3223 3224 3225 3226 3227 3228 3228
3089 3089 3096 3104 3106 3109 3112 3114 3117 3118 3118 3119 3120 3120 3120 3122 3124 3123 3124 3129 3132 3133 3133 3134 3134 3133 3134 3137 3137 3137 3139 3139 3141 3143 3145 3146 3148 3151 3153 3155 3157 3159 3160 3161 3162 3164 3165 3167 3168 3169 3171 3172 3174 3175 3177 3179 3181 3183 3186 3188 3191 3192 3194 3197 3199 3201 3203 3204 3206 3207 3209 3210 3212 3213 3214 3215 3217 3219 3221 3222 3223 3224 3225 3226 3227 3228
3089 3092 3098 3101 3103 3106 3108 3110 3112 3113 3115 3116 3115 3115 3117 3120 3121 3121 3124 3128 3130 3129 3129 3131 3131 3129 3131 3133 3133 3135 3137 3137 3139 3141 3142 3144 3145 3148 3150 3152 3155 3157 3158 3160 3161 3162 3163 3165 3167 3168 3169 3170 3171 3173 3175 3178 3180 3182 3184 3187 3189 3191 3193 3195 3197 3200 3201 3203 3204 3205 3206 3207 3209 3210 3212 3214 3216 3218 3220 3221 3222 3223 3224 3225 3226 3227
3088 3093 3097 3099 3101 3103 3105 3106 3107 3110 3113 3111 3109 3113 3116 3118 3118 3119 3123 3127 3126 3125 3125 3127 3126 3125 3127 3129 3130 3131 3133 3134 3136 3136 3138 3140 3142 3144 3146 3149 3152 3154 3156 3158 3159 3161 3162 3164 3165 3166 3166 3167 3169 3171 3174 3176 3179 3181 3182 3185 3187 3189 3191 3193 3195 3197 3199 3201 3202 3204 3205 3207 3208 3210 3212 3214 3216 3218 3220 3221 3221 3222 3223 3224 3225 3226
3084 3091 3094 3096 3098 3099 3100 3100 3102 3107 3108 3104 3107 3113 3115 3115 3114 3115 3121 3124 3123 3122 3123 3122 3121 3120 3122 3124 3126 3127 3129 3131 3132 3133 3134 3136 3138 3140 3143 3146 3148 3151 3153 3155 3156 3158 3159 3161 3162 3163 3165 3166 3168 3170 3172 3174 3176 3178 3180 3182 3185 3188 3189 3191 3193 3195 3197 3199 3201 3202 3204 3206 3208 3210 3212 3214 3215 3217 3218 3219 3220 3221 3222 3223 3224 3225
3083 3087 3089 3093 3095 3094 3093 3094 3099 3104 3104 3103 3108 3113 3113 3114 3112 3114 3120 3121 3121 3122 3119 3118 3120 3118 3116 3119 3122 3124 3125 3127 3128 3129 3132 3133 3135 3138 3140 3142 3145 3148 3150 3152 3153 3154 3156 3157 3159 3161 3164 3165 3167 3169 3170 3172 3174 3176 3178 3180 3183 3185 3187 3189 3191 3193 3195 3197 3199 3201 3202 3204 3206 3208 3210 3212 3214 3215 3216 3218 3219 3219 3220 3222 3223 3223
3083 3084 3087 3091 3090 3089 3090 3094 3099 3102 3102 3104 3109 3112 3113 3113 3111 3114 3118 3117 3119 3119 3114 3114 3119 3116 3112 3114 3117 3119 3119 3121 3123 3126 3128 3130 3132 3134 3137 3139 3142 3145 3148 3149 3151 3152 3153 3155 3157 3160 3162 3164 3166 3167 3169 3171 3172 3174 3176 3178 3180 3182 3185 3187 3189 3191 3193 3196 3197 3199 3200 3202 3205 3206 3208 3210 3211 3212 3214 3216 3217 3218 3219 3220 3221 3222
3082 3084 3087 3087 3086 3088 3091 3094 3097 3099 3101 3105 3109 3110 3111 3112 3111 3112 3114 3115 3116 3113 3109 3110 3115 3115 3111 3109 3110 3111 3112 3116 3120 3122 3124 3127 3129 3130 3133 3136 3138 3142 3144 3146 3148 3150 3152 3154 3156 3158 3160 3162 3164 3165 3167 3168 3170 3171 3173 3175 3178 3180 3182 3184 3186 3188 3191 3193 3195 3197 3199 3201 3203 3205 3206 3207 3209 3210 3212 3214 3216 3217 3218 3219 3220 3221
3080 3082 3081 3081 3083 3087 3091 3092 3094 3097 3100 3103 3106 3108 3109 3109 3109 3109 3110 3111 3111 3107 3106 3107 3111 3112 3108 3105 3106 3107 3109 3112 3114 3117 3120 3122 3124 3127 3129 3132 3135 3138 3141 3143 3145 3147 3149 3151 3153 3154 3157 3159 3161 3162 3164 3165 3167 3169 3170 3173 3175 3177 3180 3182 3184 3186 3188 3190 3193 3195 3197 3199 3201 3203 3204 3206 3207 3209 3211 3213 3215 3216 3217 3217 3218 3219
3075 3076 3077 3079 3081 3083 3086 3088 3091 3094 3097 3099 3102 3104 3105 3106 3107 3106 3104 3104 3104 3103 3103 3104 3107 3106 3102 3101 3104 3106 3107 3109 3110 3112 3116 3117 3119 3122 3125 3128 3131 3134 3137 3140 3142 3144 3146 3148 3149 3151 3153 3156 3157 3159 3161 3163 3165 3166 3168 3170 3173 3175 3177 3179 3181 3183 3186 3188 3190 3193 3195 3197 3199 3200 3202 3204 3206 3208 3210 3212 3213 3214 3216 3216 3217 3218
3070 3071 3074 3076 3075 3077 3080 3082 3085 3088 3091 3094 3096 3098 3099 3100 3102 3102 3100 3099 3099 3100 3100 3102 3103 3100 3097 3098 3101 3104 3105 3106 3108 3110 3112 3114 3116 3118 3121 3124 3128 3131 3134 3137 3139 3141 3143 3145 3146 3148 3150 3153 3154 3157 3160 3161 3163 3164 3166 3168 3170 3173 3176 3178 3179 3181 3183 3185 3188 3191 3193 3195 3197 3198 3200 3202 3204 3206 3208 3210 3212 3213 3215 3216 3216 3217
3065 3064 3064 3066 3069 3073 3076 3078 3081 3085 3088 3090 3091 3094 3093 3092 3094 3096 3096 3095 3095 3096 3097 3099 3098 3094 3093 3095 3098 3102 3104 3105 3107 3108 3109 3112 3114 3116 3118 3121 3125 3128 3131 3133 3136 3139 3140 3142 3144 3146 3148 3150 3152 3155 3157 3159 3161 3162 3164 3165 3168 3171 3173 3176 3178 3179 3181 3184 3186 3189 3191 3193 3195 3197 3199 3201 3203 3205 3206 3208 3210 3212 3213 3215 3216 3217
3061 3057 3058 3064 3068 3071 3073 3075 3080 3084 3085 3086 3089 3090 3087 3086 3090 3093 3093 3091 3093 3095 3093 3092 3091 3089 3090 3093 3096 3100 3102 3104 3106 3106 3107 3110 3113 3115 3116 3119 3122 3125 3128 3130 3133 3136 3138 3140 3142 3144 3146 3148 3151 3153 3155 3157 3158 3160 3162 3164 3166 3168 3171 3174 3176 3178 3180 3182 3185 3186 3189 3191 3193 3195 3197 3198 3201 3202 3204 3206 3208 3210 3212 3213 3215 3215
3059 3056 3059 3065 3066 3067 3070 3072 3077 3078 3078 3082 3084 3082 3080 3086 3091 3092 3092 3091 3092 3093 3090 3086 3086 3088 3090 3091 3093 3097 3098 3100 3102 3102 3103 3107 3110 3112 3114 3116 3119 3121 3124 3127 3130 3133 3136 3138 3140 3141 3144 3146 3149 3150 3152 3154 3156 3158 3160 3162 3164 3165 3168 3170 3173 3175 3178 3180 3182 3184 3186 3188 3190 3192 3194 3196 3199 3201 3203 3204 3206 3208 3210 3211 3213 3213
3058 3053 3056 3061 3061 3062 3067 3071 3073 3074 3075 3076 3075 3075 3081 3088 3090 3090 3090 3090 3090 3091 3087 3084 3083 3085 3087 3087 3089 3093 3094 3096 3098 3098 3100 3104 3107 3109 3111 3115 3117 3118 3121 3124 3126 3130 3133 3135 3137 3139 3142 3144 3147 3149 3150 3152 3154 3156 3158 3160 3162 3163 3165 3167 3170 3173 3175 3177 3179 3182 3184 3186 3188 3190 3192 3195 3197 3199 3200 3202 3204 3206 3207 3209 3211 3212
3054 3050 3049 3054 3056 3058 3063 3067 3068 3069 3071 3071 3071 3074 3080 3082 3081 3083 3086 3085 3087 3088 3086 3083 3082 3082 3082 3082 3085 3088 3089 3091 3094 3095 3097 3100 3104 3106 3109 3112 3114 3115 3118 3121 3124 3127 3130 3133 3135 3137 3140 3143 3145 3148 3149 3151 3152 3154 3156 3158 3160 3161 3163 3166 3168 3171 3173 3175 3177 3179 3182 3184 3186 3188 3190 3193 3195 3196 3198 3200 3202 3204 3206 3208 3209 3210
3050 3050 3046 3046 3051 3056 3058 3059 3058 3059 3063 3067 3070 3073 3074 3075 3075 3078 3079 3080 3083 3085 3084 3083 3082 3079 3077 3077 3080 3083 3085 3087 3089 3090 3092 3095 3099 3102 3105 3108 3110 3112 3115 3118 3121 3124 3127 3130 3133 3135 3138 3141 3144 3146 3147 3148 3150 3152 3154 3156 3158 3160 3162 3163 3165 3168 3170 3172 3175 3177 3179 3181 3183 3186 3188 3190 3192 3194 3196 3198 3200 3202 3204 3206 3207 3209
3048 3050 3046 3041 3045 3050 3050 3049 3048 3050 3056 3060 3063 3065 3067 3070 3073 3076 3077 3077 3079 3081 3082 3083 3081 3076 3074 3074 3075 3077 3079 3082 3084 3086 3087 3090 3095 3099 3102 3105 3107 3109 3112 3116 3118 3121 3125 3128 3131 3134 3136 3139 3142 3144 3145 3147 3149 3151 3153 3155 3157 3158 3160 3161 3163 3165 3167 3170 3172 3175 3177 3179 3181 3184 3186 3188 3189 3191 3194 3196 3198 3200 3202 3203 3205 3207
3046 3047 3044 3039 3040 3043 3044 3046 3048 3050 3053 3056 3057 3059 3062 3065 3069 3072 3074 3074 3075 3077 3077 3078 3078 3072 3070 3071 3072 3073 3074 3076 3080 3083 3083 3084 3090 3095 3099 3102 3104 3106 3110 3113 3115 3118 3123 3126 3129 3132 3134 3137 3140 3141 3143 3145 3147 3149 3151 3153 3155 3156 3158 3159 3161 3163 3165 3168 3170 3172 3175 3177 3180 3182 3184 3185 3186 3188 3191 3193 3196 3198 3200 3201 3203 3204
3047 3045 3043 3038 3037 3039 3040 3044 3049 3052 3054 3057 3057 3058 3061 3063 3064 3065 3067 3068 3071 3073 3074 3075 3074 3067 3066 3069 3070 3069 3071 3072 3075 3079 3080 3081 3085 3091 3095 3098 3102 3104 3108 3111 3113 3116 3121 3124 3127 3130 3132 3134 3137 3139 3141 3143 3145 3147 3149 3151 3153 3154 3156 3158 3160 3162 3163 3166 3168 3171 3174 3176 3178 3180 3181 3182 3184 3186 3188 3191 3193 3195 3197 3199 3201 3202
3046 3044 3043 3038 3035 3036 3036 3039 3044 3049 3052 3053 3054 3056 3058 3058 3059 3060 3063 3066 3068 3070 3071 3073 3072 3065 3062 3066 3067 3066 3067 3068 3071 3074 3077 3079 3083 3088 3092 3096 3099 3102 3106 3109 3111 3115 3120 3123 3125 3127 3129 3131 3134 3136 3139 3141 3143 3145 3147 3149 3151 3153 3155 3157 3158 3160 3161 3163 3166 3169 3171 3173 3175 3177 3178 3179 3181 3184 3186 3188 3191 3192 3194 3197 3198 3200
3046 3044 3045 3042 3037 3035 3036 3038 3039 3043 3046 3047 3048 3051 3053 3055 3057 3060 3063 3065 3066 3066 3068 3071 3070 3062 3059 3063 3063 3061 3062 3063 3066 3070 3073 3076 3081 3085 3088 3093 3097 3099 3103 3106 3109 3114 3118 3121 3123 3125 3126 3129 3131 3134 3137 3139 3142 3143 3145 3147 3149 3151 3153 3155 3157 3158 3159 3161 3163 3166 3168 3171 3173 3174 3175 3177 3179 3182 3184 3186 3188 3190 3192 3194 3196 3198
3047 3044 3044 3043 3039 3035 3034 3035 3036 3038 3041 3042 3043 3046 3048 3051 3054 3057 3060 3061 3061 3063 3065 3067 3064 3059 3058 3061 3059 3056 3057 3060 3063 3066 3070 3074 3078 3082 3085 3089 3094 3097 3100 3104 3107 3112 3116 3118 3120 3122 3125 3127 3130 3133 3135 3137 3140 3142 3143 3145 3147 3149 3151 3153 3155 3156 3157 3158 3160 3163 3166 3168 3171 3172 3174 3176 3177 3180 3182 3184 3185 3187 3189 3191 3193 3195
3046 3042 3040 3041 3039 3035 3031 3031 3032 3035 3036 3037 3038 3041 3044 3048 3052 3055 3057 3056 3057 3061 3062 3062 3061 3059 3059 3060 3058 3054 3055 3059 3062 3064 3068 3072 3076 3079 3082 3086 3091 3095 3098 3102 3105 3110 3113 3115 3118 3120 3123 3126 3129 3131 3134 3136 3138 3140 3142 3144 3146 3148 3150 3152 3154 3155 3156 3156 3158 3160 3163 3166 3169 3171 3173 3174 3176 3178 3180 3182 3183 3185 3187 3189 3191 3192
3043 3038 3037 3037 3035 3032 3029 3028 3029 3031 3032 3032 3033 3037 3042 3046 3050 3052 3052 3053 3056 3059 3058 3058 3060 3059 3059 3061 3060 3057 3057 3060 3062 3064 3068 3071 3074 3076 3079 3084 3090 3093 3096 3100 3104 3108 3111 3113 3116 3118 3121 3124 3127 3130 3132 3134 3137 3139 3141 3143 3145 3147 3149 3150 3152 3153 3154 3155 3155 3157 3161 3164 3167 3169 3171 3173 3174 3176 3178 3179 3181 3183 3185 3187 3188 3190
3041 3036 3034 3032 3027 3025 3025 3026 3027 3029 3030 3028 3029 3033 3039 3043 3046 3048 3050 3053 3055 3056 3056 3057 3058 3058 3059 3061 3061 3059 3059 3061 3063 3066 3068 3070 3072 3074 3078 3083 3087 3091 3095 3098 3101 3105 3108 3111 3114 3117 3120 3123 3126 3128 3131 3133 3135 3137 3140 3142 3143 3145 3147 3149 3150 3152 3153 3153 3154 3156 3159 3162 3165 3167 3169 3170 3172 3173 3175 3177 3179 3181 3183 3184 3185 3187
3039 3034 3032 3028 3023 3021 3023 3024 3026 3028 3026 3025 3027 3031 3036 3040 3044 3046 3049 3052 3054 3054 3056 3057 3057 3057 3059 3060 3060 3060 3061 3062 3063 3066 3068 3070 3071 3073 3076 3081 3085 3089 3092 3095 3099 3103 3107 3110 3113 3116 3118 3121 3124 3127 3129 3131 3133 3136 3138 3140 3142 3144 3146 3148 3149 3150 3151 3152 3154 3157 3159 3161 3163 3165 3166 3168 3169 3171 3173 3175 3176 3178 3180 3182 3183 3185
3038 3033 3030 3026 3022 3020 3020 3022 3024 3025 3024 3024 3027 3031 3034 3037 3041 3045 3049 3052 3053 3053 3055 3056 3056 3056 3056 3057 3058 3058 3060 3062 3063 3065 3067 3069 3071 3073 3075 3079 3083 3087 3090 3093 3097 3101 3105 3109 3112 3114 3117 3119 3122 3125 3128 3130 3132 3134 3136 3138 3140 3142 3144 3146 3146 3148 3149 3151 3154 3156 3158 3159 3161 3162 3164 3165 3167 3169 3171 3172 3174 3176 3177 3179 3181 3183
3037 3033 3029 3026 3022 3018 3018 3020 3023 3024 3022 3022 3025 3029 3032 3034 3039 3044 3047 3049 3050 3052 3053 3054 3054 3055 3055 3055 3055 3056 3058 3061 3062 3064 3066 3068 3070 3072 3075 3078 3082 3085 3089 3092 3096 3100 3105 3108 3111 3113 3116 3118 3121 3124 3126 3128 3131 3132 3135 3137 3138 3140 3142 3143 3144 3145 3147 3150 3153 3155 3156 3157 3159 3160 3162 3163 3165 3167 3169 3170 3172 3173 3175 3177 3179 3181
3036 3033 3029 3027 3024 3018 3017 3020 3022 3022 3022 3024 3028 3029 3029 3031 3034 3037 3039 3043 3047 3050 3052 3053 3053 3054 3054 3052 3052 3055 3057 3059 3060 3062 3064 3066 3068 3071 3074 3077 3081 3084 3088 3092 3096 3100 3104 3107 3110 3112 3115 3118 3120 3123 3125 3127 3129 3131 3133 3135 3137 3138 3139 3141 3142 3143 3146 3148 3150 3152 3154 3155 3157 3158 3160 3162 3163 3165 3167 3168 3169 3171 3172 3174 3177 3178
3034 3033 3031 3030 3028 3022 3018 3020 3022 3023 3027 3032 3033 3029 3027 3028 3030 3032 3036 3042 3046 3048 3051 3052 3051 3051 3052 3050 3051 3053 3055 3057 3059 3060 3062 3065 3067 3070 3072 3076 3079 3083 3087 3091 3095 3099 3103 3106 3109 3112 3114 3117 3119 3121 3124 3126 3128 3130 3132 3134 3135 3136 3137 3138 3140 3141 3143 3146 3148 3150 3152 3153 3154 3156 3158 3160 3161 3163 3164 3165 3167 3169 3170 3172 3174 3175
3033 3032 3030 3030 3029 3025 3021 3021 3024 3026 3029 3032 3032 3027 3025 3027 3029 3031 3035 3040 3043 3046 3050 3052 3049 3049 3051 3050 3049 3051 3053 3055 3057 3059 3062 3064 3067 3069 3071 3074 3077 3081 3085 3090 3094 3098 3101 3105 3108 3111 3114 3116 3118 3120 3122 3124 3126 3128 3130 3131 3133 3134 3135 3136 3138 3139 3141 3143 3145 3147 3149 3150 3152 3153 3155 3157 3159 3160 3161 3163 3165 3166 3168 3170 3171 3172
3031 3030 3030 3029 3028 3027 3025 3024 3026 3026 3025 3028 3029 3025 3023 3025 3027 3030 3033 3038 3042 3045 3049 3051 3049 3050 3051 3049 3049 3049 3050 3053 3056 3059 3062 3065 3067 3069 3071 3073 3077 3081 3085 3090 3093 3097 3100 3103 3107 3110 3112 3115 3116 3118 3119 3121 3124 3126 3127 3129 3131 3132 3133 3134 3135 3137 3139 3140 3142 3144 3146 3148 3149 3150 3152 3154 3156 3157 3159 3161 3162 3164 3166 3167 3169 3170
3031 3030 3031 3030 3028 3028 3028 3025 3025 3024 3023 3025 3026 3024 3024 3027 3029 3032 3035 3037 3040 3042 3046 3049 3050 3051 3050 3049 3049 3049 3048 3051 3056 3061 3064 3066 3068 3070 3071 3074 3078 3081 3085 3088 3092 3095 3099 3101 3104 3108 3110 3112 3114 3115 3117 3119 3121 3123 3125 3126 3128 3129 3131 3132 3133 3135 3136 3138 3139 3141 3143 3145 3146 3148 3149 3151 3152 3153 3155 3158 3160 3162 3163 3165 3166 3167
3031 3031 3032 3032 3030 3029 3029 3027 3025 3023 3024 3025 3025 3025 3027 3029 3030 3033 3034 3036 3038 3040 3044 3047 3049 3051 3051 3049 3049 3048 3047 3050 3057 3061 3064 3067 3068 3070 3072 3074 3077 3081 3084 3087 3091 3094 3097 3100 3103 3106 3108 3110 3111 3113 3115 3117 3119 3121 3122 3123 3125 3127 3128 3130 3132 3133 3134 3136 3137 3138 3140 3142 3143 3145 3146 3147 3149 3150 3152 3154 3156 3159 3160 3162 3163 3164
3030 3031 3032 3033 3031 3030 3031 3030 3027 3026 3026 3026 3025 3024 3026 3028 3030 3031 3033 3037 3040 3040 3042 3044 3046 3050 3052 3050 3050 3049 3047 3049 3055 3060 3064 3067 3069 3070 3072 3074 3077 3080 3083 3087 3090 3093 3096 3100 3102 3105 3107 3109 3110 3112 3114 3116 3117 3118 3120 3121 3123 3124 3126 3128 3129 3131 3133 3134 3135 3137 3138 3139 3141 3142 3144 3145 3146 3148 3149 3151 3153 3155 3157 3158 3160 3161
3029 3030 3031 3032 3031 3031 3031 3030 3028 3028 3027 3026 3025 3024 3025 3028 3029 3029 3034 3042 3044 3042 3042 3043 3043 3047 3050 3050 3051 3051 3048 3049 3053 3059 3063 3067 3069 3071 3073 3075 3077 3080 3083 3086 3089 3093 3096 3099 3101 3104 3106 3108 3110 3112 3113 3115 3116 3118 3119 3120 3122 3123 3124 3126 3128 3129 3131 3132 3134 3135 3136 3137 3138 3140 3141 3142 3144 3145 3147 3148 3150 3151 3153 3154 3156 3158
3029 3030 3031 3032 3031 3031 3031 3031 3029 3029 3029 3028 3026 3024 3024 3026 3029 3032 3038 3045 3045 3043 3044 3042 3041 3043 3047 3048 3050 3051 3050 3051 3054 3058 3063 3067 3070 3072 3074 3076 3079 3081 3083 3086 3089 3092 3095 3097 3100 3102 3105 3107 3109 3111 3113 3114 3116 3117 3118 3120 3121 3122 3124 3125 3127 3128 3129 3130 3132 3133 3134 3135 3136 3137 3139 3140 3141 3143 3144 3145 3147 3148 3149 3151 3152 3154
3031 3031 3032 3032 3031 3031 3031 3030 3029 3030 3030 3028 3027 3025 3023 3025 3032 3038 3042 3043 3044 3044 3044 3042 3040 3042 3044 3045 3048 3050 3051 3053 3055 3059 3063 3066 3069 3071 3073 3076 3079 3081 3083 3086 3089 3091 3093 3096 3098 3101 3103 3105 3107 3109 3111 3113 3114 3115 3117 3118 3120 3121 3122 3124 3125 3126 3128 3129 3130 3131 3132 3133 3134 3135 3136 3137 3138 3139 3140 3142 3143 3145 3146 3147 3149 3150
3033 3033 3034 3033 3032 3032 3031 3030 3032 3033 3032 3029 3028 3026 3025 3028 3035 3041 3042 3042 3043 3043 3043 3041 3041 3042 3043 3044 3046 3049 3052 3054 3056 3059 3062 3065 3068 3070 3072 3075 3077 3080 3082 3085 3087 3089 3092 3094 3097 3099 3101 3103 3104 3106 3108 3110 3112 3113 3114 3115 3117 3118 3120 3121 3122 3124 3125 3127 3128 3128 3129 3130 3131 3132 3134 3135 3136 3137 3137 3138 3140 3141 3142 3144 3145 3146
3035 3036 3036 3035 3034 3034 3034 3034 3036 3037 3035 3032 3031 3030 3030 3032 3036 3038 3039 3040 3040 3039 3039 3039 3040 3042 3044 3045 3047 3049 3052 3055 3057 3060 3062 3064 3066 3068 3071 3073 3076 3078 3081 3083 3086 3088 3090 3093 3095 3097 3099 3100 3102 3104 3106 3107 3109 3110 3111 3113 3114 3116 3117 3118 3120 3121 3122 3124 3125 3126 3127 3128 3129 3130 3131 3132 3133 3134 3135 3136 3136 3137 3139 3140 3141 3142
3037 3038 3038 3037 3036 3036 3037 3037 3037 3037 3037 3036 3034 3033 3032 3032 3033 3034 3036 3038 3038 3036 3035 3036 3038 3041 3044 3046 3048 3050 3052 3055 3058 3060 3062 3064 3065 3067 3069 3071 3074 3077 3079 3082 3084 3086 3089 3091 3094 3095 3097 3098 3099 3101 3103 3104 3106 3107 3108 3109 3111 3112 3114 3115 3117 3118 3119 3121 3122 3123 3124 3125 3126 3127 3128 3129 3130 3131 3132 3133 3133 3134 3135 3136 3137 3139
3038 3038 3038 3038 3036 3036 3037 3037 3036 3036 3037 3036 3035 3034 3033 3032 3031 3031 3033 3035 3036 3036 3035 3035 3036 3039 3042 3045 3047 3050 3052 3054 3057 3059 3061 3062 3064 3066 3068 3070 3072 3075 3078 3080 3082 3085 3087 3090 3092 3094 3094 3095 3096 3098 3100 3101 3102 3103 3104 3106 3107 3109 3111 3112 3113 3115 3116 3118 3119 3120 3121 3122 3123 3124 3125 3126 3127 3127 3128 3129 3130 3131 3132 3132 3133 3135
3036 3037 3038 3037 3036 3036 3036 3035 3035 3036 3036 3035 3034 3034 3034 3033 3031 3030 3031 3033 3035 3036 3037 3038 3038 3039 3041 3044 3046 3048 3050 3053 3055 3057 3059 3060 3062 3064 3066 3068 3071 3073 3076 3078 3080 3082 3085 3087 3089 3091 3091 3092 3094 3095 3097 3098 3099 3100 3101 3103 3104 3106 3107 3109 3110 3112 3113 3115 3116 3117 3118 3119 3120 3121 3122 3123 3123 3124 3124 3125 3126 3127 3128 3129 3130 3131
3034 3035 3036 3036 3036 3036 3035 3035 3035 3036 3035 3035 3034 3034 3034 3034 3032 3032 3032 3034 3035 3037 3039 3040 3040 3041 3043 3044 3045 3047 3049 3051 3053 3055 3057 3059 3061 3063 3065 3067 3070 3072 3074 3076 3078 3080 3082 3084 3086 3087 3088 3089 3091 3093 3094 3095 3096 3097 3098 3100 3102 3103 3104 3106 3107 3108 3110 3111 3113 3114 3115 3116 3117 3118 3119 3119 3120 3120 3120 3121 3123 3123 3125 3126 3127 3128
3034 3033 3033 3033 3033 3033 3033 3033 3033 3034 3035 3035 3035 3034 3035 3034 3033 3033 3033 3034 3035 3037 3039 3040 3041 3042 3044 3045 3046 3047 3050 3052 3053 3055 3057 3059 3061 3063 3065 3067 3069 3071 3073 3075 3076 3077 3079 3081 3082 3084 3085 3086 3088 3089 3091 3092 3093 3095 3096 3098 3099 3100 3102 3103 3104 3105 3106 3108 3109 3111 3112 3113 3114 3115 3115 3116 3116 3117 3118 3119 3120 3120 3121 3122 3123 3124
3034 3032 3031 3030 3030 3030 3030 3030 3030 3032 3033 3034 3034 3034 3034 3034 3034 3034 3034 3034 3035 3036 3038 3039 3040 3042 3043 3044 3046 3047 3050 3052 3053 3054 3056 3058 3060 3062 3063 3065 3067 3069 3071 3072 3074 3075 3077 3078 3080 3081 3082 3083 3084 3086 3087 3089 3091 3093 3094 3096 3097 3098 3098 3099 3100 3101 3102 3104 3105 3107 3108 3109 3110 3111 3112 3112 3113 3114 3115 3116 3116 3117 3118 3119 3120 3121
3032 3031 3030 3028 3026 3026 3027 3027 3027 3027 3028 3030 3032 3033 3033 3033 3033 3033 3033 3033 3034 3035 3037 3038 3040 3041 3042 3044 3045 3047 3048 3050 3052 3053 3055 3056 3058 3060 3061 3063 3065 3067 3068 3070 3071 3073 3075 3076 3078 3078 3079 3080 3081 3083 3084 3086 3087 3089 3091 3092 3093 3094 3095 3096 3097 3098 3099 3100 3102 3103 3105 3106 3107 3108 3108 3109 3110 3111 3112 3112 3113 3114 3115 3116 3117 3117